owner,sensor,date,latitude,longitude,vertical_datum,direction_of_sea_water_velocity,sea_water_speed,upward_sea_water_velocity,qcFlag 
TABS,ioos:station:wmo:42044:1,2000-12-01T00:00:00Z,26.1914,-97.0507,2.0,357.5297349,10.43970306,-99999.0,'11111222,11111222,99999999' 
TABS,ioos:station:wmo:42044:1,2000-12-01T00:30:00Z,26.1914,-97.0507,2.0,352.2626025,12.18090719,-99999.0,'11111222,11111222,99999999' 
TABS,ioos:station:wmo:42044:1,2000-12-01T01:00:00Z,26.1914,-97.0507,2.0,353.9586781,18.43237641,-99999.0,'11111222,11111222,99999999' 
TABS,ioos:station:wmo:42044:1,2000-12-01T01:30:00Z,26.1914,-97.0507,2.0,340.2151523,14.09185935,-99999.0,'11111222,11111222,99999999' 
TABS,ioos:station:wmo:42044:1,2000-12-01T02:00:00Z,26.1914,-97.0507,2.0,46.64923639,3.685552876,-99999.0,'11133222,11111222,99999999' 
TABS,ioos:station:wmo:42044:1,2000-12-01T02:30:00Z,26.1914,-97.0507,2.0,337.8680882,18.9783798,-99999.0,'11111222,11111222,99999999' 
TABS,ioos:station:wmo:42044:1,2000-12-01T03:00:00Z,26.1914,-97.0507,2.0,150.1317237,8.072199205,-99999.0,'11133222,11111222,99999999' 
TABS,ioos:station:wmo:42044:1,2000-12-01T03:30:00Z,26.1914,-97.0507,2.0,112.6991482,8.88847006,-99999.0,'11133222,11111222,99999999' 
TABS,ioos:station:wmo:42044:1,2000-12-01T04:00:00Z,26.1914,-97.0507,2.0,35.27991201,3.099193443,-99999.0,'11133222,11111222,99999999' 
TABS,ioos:station:wmo:42044:1,2000-12-01T04:30:00Z,26.1914,-97.0507,2.0,81.36702842,6.928499116,-99999.0,'11133222,11111222,99999999' 
TABS,ioos:station:wmo:42044:1,2000-12-01T05:00:00Z,26.1914,-97.0507,2.0,55.3906852,7.605918748,-99999.0,'11133222,11111222,99999999' 
TABS,ioos:station:wmo:42044:1,2000-12-01T05:30:00Z,26.1914,-97.0507,2.0,31.53604282,9.961134474,-99999.0,'11133222,11111222,99999999' 
TABS,ioos:station:wmo:42044:1,2000-12-01T06:00:00Z,26.1914,-97.0507,2.0,345.0635137,6.944652619,-99999.0,'11133222,11111222,99999999' 
TABS,ioos:station:wmo:42044:1,2000-12-01T06:30:00Z,26.1914,-97.0507,2.0,46.7127538,10.64671311,-99999.0,'11111222,11111222,99999999' 
TABS,ioos:station:wmo:42044:1,2000-12-01T07:00:00Z,26.1914,-97.0507,2.0,59.05516933,10.42368457,-99999.0,'11111222,11111222,99999999' 
TABS,ioos:station:wmo:42044:1,2000-12-01T07:30:00Z,26.1914,-97.0507,2.0,59.05516933,10.42368457,-99999.0,'11111222,11111222,99999999' 
TABS,ioos:station:wmo:42044:1,2000-12-01T10:00:00Z,26.1914,-97.0507,2.0,90.0,5.81,-99999.0,'11133222,11111222,99999999' 
TABS,ioos:station:wmo:42044:1,2000-12-01T10:30:00Z,26.1914,-97.0507,2.0,73.04399929,9.189477678,-99999.0,'11133222,11111222,99999999' 
TABS,ioos:station:wmo:42044:1,2000-12-01T11:00:00Z,26.1914,-97.0507,2.0,50.7487552,6.353487231,-99999.0,'11133222,11111222,99999999' 
TABS,ioos:station:wmo:42044:1,2000-12-01T11:30:00Z,26.1914,-97.0507,2.0,27.1538327,6.529663085,-99999.0,'11133222,11111222,99999999' 
TABS,ioos:station:wmo:42044:1,2000-12-01T12:00:00Z,26.1914,-97.0507,2.0,51.38195928,8.587997438,-99999.0,'11133222,11111222,99999999' 
TABS,ioos:station:wmo:42044:1,2000-12-01T12:30:00Z,26.1914,-97.0507,2.0,64.77715539,8.400976134,-99999.0,'11133222,11111222,99999999' 
TABS,ioos:station:wmo:42044:1,2000-12-01T13:00:00Z,26.1914,-97.0507,2.0,52.90724944,6.168046692,-99999.0,'11133222,11111222,99999999' 
TABS,ioos:station:wmo:42044:1,2000-12-01T13:30:00Z,26.1914,-97.0507,2.0,75.61626645,5.998016339,-99999.0,'11133222,11111222,99999999' 
TABS,ioos:station:wmo:42044:1,2000-12-01T14:00:00Z,26.1914,-97.0507,2.0,27.8844211,11.46065007,-99999.0,'11111222,11111222,99999999' 
TABS,ioos:station:wmo:42044:1,2000-12-01T14:30:00Z,26.1914,-97.0507,2.0,29.23725772,8.537646046,-99999.0,'11133222,11111222,99999999' 
TABS,ioos:station:wmo:42044:1,2000-12-01T15:00:00Z,26.1914,-97.0507,2.0,23.68362252,6.671918764,-99999.0,'11133222,11111222,99999999' 
TABS,ioos:station:wmo:42044:1,2000-12-01T15:30:00Z,26.1914,-97.0507,2.0,46.59276653,7.377973977,-99999.0,'11133222,11111222,99999999' 
TABS,ioos:station:wmo:42044:1,2000-12-01T16:00:00Z,26.1914,-97.0507,2.0,1.479115464,5.811935994,-99999.0,'11133222,11111222,99999999' 
TABS,ioos:station:wmo:42044:1,2000-12-01T16:30:00Z,26.1914,-97.0507,2.0,68.58964301,8.163357153,-99999.0,'11133222,11111222,99999999' 
TABS,ioos:station:wmo:42044:1,2000-12-01T17:00:00Z,26.1914,-97.0507,2.0,43.3971007,7.583152379,-99999.0,'11133222,11111222,99999999' 
TABS,ioos:station:wmo:42044:1,2000-12-01T17:30:00Z,26.1914,-97.0507,2.0,55.68702354,7.397364396,-99999.0,'11133222,11111222,99999999' 
TABS,ioos:station:wmo:42044:1,2000-12-01T18:00:00Z,26.1914,-97.0507,2.0,84.84338551,8.233322537,-99999.0,'11133222,11111222,99999999' 
TABS,ioos:station:wmo:42044:1,2000-12-01T18:30:00Z,26.1914,-97.0507,2.0,98.12046514,8.42447031,-99999.0,'11133222,11111222,99999999' 
TABS,ioos:station:wmo:42044:1,2000-12-01T19:00:00Z,26.1914,-97.0507,2.0,90.0,5.96,-99999.0,'11133222,11111222,99999999' 
TABS,ioos:station:wmo:42044:1,2000-12-01T19:30:00Z,26.1914,-97.0507,2.0,149.8714144,7.411241461,-99999.0,'11133222,11111222,99999999' 
TABS,ioos:station:wmo:42044:1,2000-12-01T20:00:00Z,26.1914,-97.0507,2.0,66.25813582,5.538754373,-99999.0,'11133222,11111222,99999999' 
TABS,ioos:station:wmo:42044:1,2000-12-01T20:30:00Z,26.1914,-97.0507,2.0,66.05740627,5.864639801,-99999.0,'11133222,11111222,99999999' 
TABS,ioos:station:wmo:42044:1,2000-12-01T21:00:00Z,26.1914,-97.0507,2.0,9.008693135,6.641927431,-99999.0,'11133222,11111222,99999999' 
TABS,ioos:station:wmo:42044:1,2000-12-01T21:30:00Z,26.1914,-97.0507,2.0,55.36640359,2.357795581,-99999.0,'11133222,11111222,99999999' 
TABS,ioos:station:wmo:42044:1,2000-12-01T22:00:00Z,26.1914,-97.0507,2.0,1.177352592,7.301540933,-99999.0,'11133222,11111222,99999999' 
TABS,ioos:station:wmo:42044:1,2000-12-01T22:30:00Z,26.1914,-97.0507,2.0,12.04801408,4.263918386,-99999.0,'11133222,11111222,99999999' 
TABS,ioos:station:wmo:42044:1,2000-12-01T23:00:00Z,26.1914,-97.0507,2.0,71.53303181,5.650991064,-99999.0,'11133222,11111222,99999999' 
TABS,ioos:station:wmo:42044:1,2000-12-01T23:30:00Z,26.1914,-97.0507,2.0,50.30741967,9.097037979,-99999.0,'11133222,11111222,99999999' 
TABS,ioos:station:wmo:42044:1,2000-12-02T00:00:00Z,26.1914,-97.0507,2.0,52.64737153,14.24050561,-99999.0,'11111222,11111222,99999999' 
TABS,ioos:station:wmo:42044:1,2000-12-02T00:30:00Z,26.1914,-97.0507,2.0,358.8805684,15.35293132,-99999.0,'11111222,11111222,99999999' 
TABS,ioos:station:wmo:42044:1,2000-12-02T01:00:00Z,26.1914,-97.0507,2.0,38.53107152,21.52704578,-99999.0,'11111222,11111222,99999999' 
TABS,ioos:station:wmo:42044:1,2000-12-02T01:30:00Z,26.1914,-97.0507,2.0,64.19637005,20.19347667,-99999.0,'11111222,11111222,99999999' 
TABS,ioos:station:wmo:42044:1,2000-12-02T02:00:00Z,26.1914,-97.0507,2.0,114.6438428,2.134408583,-99999.0,'11133222,11111222,99999999' 
TABS,ioos:station:wmo:42044:1,2000-12-02T02:30:00Z,26.1914,-97.0507,2.0,90.0,7.9,-99999.0,'11133222,11111222,99999999' 
TABS,ioos:station:wmo:42044:1,2000-12-02T03:00:00Z,26.1914,-97.0507,2.0,205.814633,5.465418557,-99999.0,'11133222,11111222,99999999' 
TABS,ioos:station:wmo:42044:1,2000-12-02T03:30:00Z,26.1914,-97.0507,2.0,197.8748208,4.854327966,-99999.0,'11133222,11111222,99999999' 
TABS,ioos:station:wmo:42044:1,2000-12-02T04:00:00Z,26.1914,-97.0507,2.0,108.4349057,0.474341649,-99999.0,'11133222,11111222,99999999' 
TABS,ioos:station:wmo:42044:1,2000-12-02T04:30:00Z,26.1914,-97.0507,2.0,214.1627641,5.039623002,-99999.0,'11133222,11111222,99999999' 
TABS,ioos:station:wmo:42044:1,2000-12-02T05:00:00Z,26.1914,-97.0507,2.0,224.9996843,0.424264069,-99999.0,'11133222,11111222,99999999' 
TABS,ioos:station:wmo:42044:1,2000-12-02T05:30:00Z,26.1914,-97.0507,2.0,175.20967,1.796273921,-99999.0,'11133222,11111222,99999999' 
TABS,ioos:station:wmo:42044:1,2000-12-02T06:00:00Z,26.1914,-97.0507,2.0,63.2427444,1.332704018,-99999.0,'11133222,11111222,99999999' 
TABS,ioos:station:wmo:42044:1,2000-12-02T06:30:00Z,26.1914,-97.0507,2.0,191.4585151,0.755049667,-99999.0,'11133222,11111222,99999999' 
TABS,ioos:station:wmo:42044:1,2000-12-02T07:00:00Z,26.1914,-97.0507,2.0,10.82529681,3.940114212,-99999.0,'11133222,11111222,99999999' 
TABS,ioos:station:wmo:42044:1,2000-12-02T07:30:00Z,26.1914,-97.0507,2.0,1.624415482,10.58425245,-99999.0,'11111222,11111222,99999999' 
TABS,ioos:station:wmo:42044:1,2000-12-02T08:00:00Z,26.1914,-97.0507,2.0,319.1691593,15.95210958,-99999.0,'11111222,11111222,99999999' 
TABS,ioos:station:wmo:42044:1,2000-12-02T08:30:00Z,26.1914,-97.0507,2.0,318.5209853,24.06583678,-99999.0,'11111222,11111222,99999999' 
TABS,ioos:station:wmo:42044:1,2000-12-02T09:00:00Z,26.1914,-97.0507,2.0,314.8099654,31.92604736,-99999.0,'11111222,11111222,99999999' 
TABS,ioos:station:wmo:42044:1,2000-12-02T09:30:00Z,26.1914,-97.0507,2.0,306.692802,39.3961889,-99999.0,'11111222,11111222,99999999' 
TABS,ioos:station:wmo:42044:1,2000-12-02T10:00:00Z,26.1914,-97.0507,2.0,323.711182,41.04010843,-99999.0,'11111222,11111222,99999999' 
TABS,ioos:station:wmo:42044:1,2000-12-02T10:30:00Z,26.1914,-97.0507,2.0,313.0832682,41.0068604,-99999.0,'11111222,11111222,99999999' 
TABS,ioos:station:wmo:42044:1,2000-12-02T11:00:00Z,26.1914,-97.0507,2.0,315.0003157,42.35569619,-99999.0,'11111222,11111222,99999999' 
TABS,ioos:station:wmo:42044:1,2000-12-02T11:30:00Z,26.1914,-97.0507,2.0,314.8542778,41.61336925,-99999.0,'11111222,11111222,99999999' 
TABS,ioos:station:wmo:42044:1,2000-12-02T12:00:00Z,26.1914,-97.0507,2.0,333.0813671,43.44762939,-99999.0,'11111222,11111222,99999999' 
TABS,ioos:station:wmo:42044:1,2000-12-02T12:30:00Z,26.1914,-97.0507,2.0,327.4768319,48.76825607,-99999.0,'11111222,11111222,99999999' 
TABS,ioos:station:wmo:42044:1,2000-12-02T13:00:00Z,26.1914,-97.0507,2.0,324.1342542,49.08753406,-99999.0,'11111222,11111222,99999999' 
TABS,ioos:station:wmo:42044:1,2000-12-02T13:30:00Z,26.1914,-97.0507,2.0,323.3272529,52.39030922,-99999.0,'11111222,11111222,99999999' 
TABS,ioos:station:wmo:42044:1,2000-12-02T14:00:00Z,26.1914,-97.0507,2.0,321.6646588,49.96234782,-99999.0,'11111222,11111222,99999999' 
TABS,ioos:station:wmo:42044:1,2000-12-02T14:30:00Z,26.1914,-97.0507,2.0,324.4692779,49.98764747,-99999.0,'11111222,11111222,99999999' 
TABS,ioos:station:wmo:42044:1,2000-12-02T15:00:00Z,26.1914,-97.0507,2.0,315.8061625,52.79074256,-99999.0,'11111222,11111222,99999999' 
TABS,ioos:station:wmo:42044:1,2000-12-02T15:30:00Z,26.1914,-97.0507,2.0,323.2290522,52.27007748,-99999.0,'11111222,11111222,99999999' 
TABS,ioos:station:wmo:42044:1,2000-12-02T16:00:00Z,26.1914,-97.0507,2.0,329.9698746,48.5353943,-99999.0,'11111222,11111222,99999999' 
TABS,ioos:station:wmo:42044:1,2000-12-02T16:30:00Z,26.1914,-97.0507,2.0,322.6616084,50.59969367,-99999.0,'11111222,11111222,99999999' 
TABS,ioos:station:wmo:42044:1,2000-12-02T17:00:00Z,26.1914,-97.0507,2.0,315.5329052,44.88200642,-99999.0,'11111222,11111222,99999999' 
TABS,ioos:station:wmo:42044:1,2000-12-02T17:30:00Z,26.1914,-97.0507,2.0,325.9735075,41.53112086,-99999.0,'11111222,11111222,99999999' 
TABS,ioos:station:wmo:42044:1,2000-12-02T18:00:00Z,26.1914,-97.0507,2.0,319.443293,44.90895679,-99999.0,'11111222,11111222,99999999' 
TABS,ioos:station:wmo:42044:1,2000-12-02T18:30:00Z,26.1914,-97.0507,2.0,324.2957247,41.10650192,-99999.0,'11111222,11111222,99999999' 
TABS,ioos:station:wmo:42044:1,2000-12-02T19:00:00Z,26.1914,-97.0507,2.0,309.5205871,41.91083154,-99999.0,'11111222,11111222,99999999' 
TABS,ioos:station:wmo:42044:1,2000-12-02T19:30:00Z,26.1914,-97.0507,2.0,306.2923559,35.49580539,-99999.0,'11111222,11111222,99999999' 
TABS,ioos:station:wmo:42044:1,2000-12-02T20:00:00Z,26.1914,-97.0507,2.0,303.390822,38.72137653,-99999.0,'11111222,11111222,99999999' 
TABS,ioos:station:wmo:42044:1,2000-12-02T20:30:00Z,26.1914,-97.0507,2.0,323.5290118,39.09694617,-99999.0,'11111222,11111222,99999999' 
TABS,ioos:station:wmo:42044:1,2000-12-02T21:00:00Z,26.1914,-97.0507,2.0,302.9191072,39.76451307,-99999.0,'11111222,11111222,99999999' 
TABS,ioos:station:wmo:42044:1,2000-12-02T21:30:00Z,26.1914,-97.0507,2.0,305.5979159,32.24595013,-99999.0,'11111222,11111222,99999999' 
TABS,ioos:station:wmo:42044:1,2000-12-02T22:00:00Z,26.1914,-97.0507,2.0,315.1932296,31.50178566,-99999.0,'11111222,11111222,99999999' 
TABS,ioos:station:wmo:42044:1,2000-12-02T22:30:00Z,26.1914,-97.0507,2.0,304.1367943,31.32764434,-99999.0,'11111222,11111222,99999999' 
TABS,ioos:station:wmo:42044:1,2000-12-02T23:00:00Z,26.1914,-97.0507,2.0,308.5210494,28.95001554,-99999.0,'11111222,11111222,99999999' 
TABS,ioos:station:wmo:42044:1,2000-12-02T23:30:00Z,26.1914,-97.0507,2.0,310.7941412,28.72934736,-99999.0,'11111222,11111222,99999999' 
TABS,ioos:station:wmo:42044:1,2000-12-03T00:00:00Z,26.1914,-97.0507,2.0,316.3416795,22.65483834,-99999.0,'11111222,11111222,99999999' 
TABS,ioos:station:wmo:42044:1,2000-12-03T00:30:00Z,26.1914,-97.0507,2.0,324.6722786,23.19039672,-99999.0,'11111222,11111222,99999999' 
TABS,ioos:station:wmo:42044:1,2000-12-03T01:00:00Z,26.1914,-97.0507,2.0,322.4955873,18.59314121,-99999.0,'11111222,11111222,99999999' 
TABS,ioos:station:wmo:42044:1,2000-12-03T01:30:00Z,26.1914,-97.0507,2.0,336.5461807,22.08464851,-99999.0,'11111222,11111222,99999999' 
TABS,ioos:station:wmo:42044:1,2000-12-03T02:00:00Z,26.1914,-97.0507,2.0,336.9770774,17.15657891,-99999.0,'11111222,11111222,99999999' 
TABS,ioos:station:wmo:42044:1,2000-12-03T02:30:00Z,26.1914,-97.0507,2.0,347.558298,20.74725283,-99999.0,'11111222,11111222,99999999' 
TABS,ioos:station:wmo:42044:1,2000-12-03T03:00:00Z,26.1914,-97.0507,2.0,345.5794711,15.53960746,-99999.0,'11111222,11111222,99999999' 
TABS,ioos:station:wmo:42044:1,2000-12-03T03:30:00Z,26.1914,-97.0507,2.0,358.5704995,18.03561477,-99999.0,'11111222,11111222,99999999' 
TABS,ioos:station:wmo:42044:1,2000-12-03T04:00:00Z,26.1914,-97.0507,2.0,356.1604072,17.76989026,-99999.0,'11111222,11111222,99999999' 
TABS,ioos:station:wmo:42044:1,2000-12-03T04:30:00Z,26.1914,-97.0507,2.0,349.0734386,17.30371347,-99999.0,'11111222,11111222,99999999' 
TABS,ioos:station:wmo:42044:1,2000-12-03T05:00:00Z,26.1914,-97.0507,2.0,353.495411,18.4487669,-99999.0,'11111222,11111222,99999999' 
TABS,ioos:station:wmo:42044:1,2000-12-03T05:30:00Z,26.1914,-97.0507,2.0,345.612301,17.38528113,-99999.0,'11111222,11111222,99999999' 
TABS,ioos:station:wmo:42044:1,2000-12-03T06:00:00Z,26.1914,-97.0507,2.0,342.5161392,17.34115625,-99999.0,'11111222,11111222,99999999' 
TABS,ioos:station:wmo:42044:1,2000-12-03T08:30:00Z,26.1914,-97.0507,2.0,344.7858153,20.99589722,-99999.0,'11111222,11111222,99999999' 
TABS,ioos:station:wmo:42044:1,2000-12-03T09:00:00Z,26.1914,-97.0507,2.0,320.4423638,22.21844729,-99999.0,'11111222,11111222,99999999' 
TABS,ioos:station:wmo:42044:1,2000-12-03T09:30:00Z,26.1914,-97.0507,2.0,324.9663764,21.28692791,-99999.0,'11111222,11111222,99999999' 
TABS,ioos:station:wmo:42044:1,2000-12-03T10:00:00Z,26.1914,-97.0507,2.0,335.3257245,24.26560117,-99999.0,'11111222,11111222,99999999' 
TABS,ioos:station:wmo:42044:1,2000-12-03T10:30:00Z,26.1914,-97.0507,2.0,338.4365919,25.95671782,-99999.0,'11111222,11111222,99999999' 
TABS,ioos:station:wmo:42044:1,2000-12-03T11:00:00Z,26.1914,-97.0507,2.0,313.3946049,26.24396693,-99999.0,'11111222,11111222,99999999' 
TABS,ioos:station:wmo:42044:1,2000-12-03T11:30:00Z,26.1914,-97.0507,2.0,335.6621941,20.60080096,-99999.0,'11111222,11111222,99999999' 
TABS,ioos:station:wmo:42044:1,2000-12-03T12:00:00Z,26.1914,-97.0507,2.0,308.4366963,30.43537416,-99999.0,'11111222,11111222,99999999' 
TABS,ioos:station:wmo:42044:1,2000-12-03T12:30:00Z,26.1914,-97.0507,2.0,302.1358564,32.20387865,-99999.0,'11111222,11111222,99999999' 
TABS,ioos:station:wmo:42044:1,2000-12-03T13:00:00Z,26.1914,-97.0507,2.0,290.7293718,29.46758388,-99999.0,'11111222,11111222,99999999' 
TABS,ioos:station:wmo:42044:1,2000-12-03T13:30:00Z,26.1914,-97.0507,2.0,262.2559936,28.72191672,-99999.0,'11111222,11111222,99999999' 
TABS,ioos:station:wmo:42044:1,2000-12-03T14:00:00Z,26.1914,-97.0507,2.0,307.4924941,37.93623729,-99999.0,'11111222,11111222,99999999' 
TABS,ioos:station:wmo:42044:1,2000-12-03T14:30:00Z,26.1914,-97.0507,2.0,303.7525569,38.35476763,-99999.0,'11111222,11111222,99999999' 
TABS,ioos:station:wmo:42044:1,2000-12-03T15:00:00Z,26.1914,-97.0507,2.0,287.1725171,44.91208857,-99999.0,'11111222,11111222,99999999' 
TABS,ioos:station:wmo:42044:1,2000-12-03T15:30:00Z,26.1914,-97.0507,2.0,284.5337613,38.01646485,-99999.0,'11111222,11111222,99999999' 
TABS,ioos:station:wmo:42044:1,2000-12-03T16:00:00Z,26.1914,-97.0507,2.0,301.1756937,34.82988516,-99999.0,'11111222,11111222,99999999' 
TABS,ioos:station:wmo:42044:1,2000-12-03T16:30:00Z,26.1914,-97.0507,2.0,329.3633627,31.86838559,-99999.0,'11111222,11111222,99999999' 
TABS,ioos:station:wmo:42044:1,2000-12-03T17:00:00Z,26.1914,-97.0507,2.0,342.2382923,36.61537655,-99999.0,'11111222,11111222,99999999' 
TABS,ioos:station:wmo:42044:1,2000-12-03T17:30:00Z,26.1914,-97.0507,2.0,315.3154701,38.56618726,-99999.0,'11111222,11111222,99999999' 
TABS,ioos:station:wmo:42044:1,2000-12-03T18:00:00Z,26.1914,-97.0507,2.0,316.870146,38.79131991,-99999.0,'11111222,11111222,99999999' 
TABS,ioos:station:wmo:42044:1,2000-12-03T18:30:00Z,26.1914,-97.0507,2.0,345.2306873,28.04669143,-99999.0,'11111222,11111222,99999999' 
TABS,ioos:station:wmo:42044:1,2000-12-03T19:00:00Z,26.1914,-97.0507,2.0,346.3298356,33.42694123,-99999.0,'11111222,11111222,99999999' 
TABS,ioos:station:wmo:42044:1,2000-12-03T19:30:00Z,26.1914,-97.0507,2.0,356.2505431,31.9584136,-99999.0,'11111222,11111222,99999999' 
TABS,ioos:station:wmo:42044:1,2000-12-03T20:00:00Z,26.1914,-97.0507,2.0,339.2615498,37.44633493,-99999.0,'11111222,11111222,99999999' 
TABS,ioos:station:wmo:42044:1,2000-12-03T20:30:00Z,26.1914,-97.0507,2.0,344.8195252,32.42135407,-99999.0,'11111222,11111222,99999999' 
TABS,ioos:station:wmo:42044:1,2000-12-03T21:00:00Z,26.1914,-97.0507,2.0,357.7211588,33.69665414,-99999.0,'11111222,11111222,99999999' 
TABS,ioos:station:wmo:42044:1,2000-12-03T21:30:00Z,26.1914,-97.0507,2.0,347.4382492,28.092499,-99999.0,'11111222,11111222,99999999' 
TABS,ioos:station:wmo:42044:1,2000-12-03T22:00:00Z,26.1914,-97.0507,2.0,348.7348232,32.81220047,-99999.0,'11111222,11111222,99999999' 
TABS,ioos:station:wmo:42044:1,2000-12-03T22:30:00Z,26.1914,-97.0507,2.0,330.9968452,28.2760853,-99999.0,'11111222,11111222,99999999' 
TABS,ioos:station:wmo:42044:1,2000-12-03T23:00:00Z,26.1914,-97.0507,2.0,346.7353259,37.65464248,-99999.0,'11111222,11111222,99999999' 
TABS,ioos:station:wmo:42044:1,2000-12-03T23:30:00Z,26.1914,-97.0507,2.0,339.3956104,37.25304014,-99999.0,'11111222,11111222,99999999' 
TABS,ioos:station:wmo:42044:1,2000-12-04T00:00:00Z,26.1914,-97.0507,2.0,358.0862409,35.62987791,-99999.0,'11111222,11111222,99999999' 
TABS,ioos:station:wmo:42044:1,2000-12-04T00:30:00Z,26.1914,-97.0507,2.0,3.615353922,33.14595752,-99999.0,'11111222,11111222,99999999' 
TABS,ioos:station:wmo:42044:1,2000-12-04T01:00:00Z,26.1914,-97.0507,2.0,353.999445,32.80978208,-99999.0,'11111222,11111222,99999999' 
TABS,ioos:station:wmo:42044:1,2000-12-04T01:30:00Z,26.1914,-97.0507,2.0,9.859161321,28.73434356,-99999.0,'11111222,11111222,99999999' 
TABS,ioos:station:wmo:42044:1,2000-12-04T02:00:00Z,26.1914,-97.0507,2.0,358.852538,29.95600941,-99999.0,'11111222,11111222,99999999' 
TABS,ioos:station:wmo:42044:1,2000-12-04T02:30:00Z,26.1914,-97.0507,2.0,356.9825269,36.85110039,-99999.0,'11111222,11111222,99999999' 
TABS,ioos:station:wmo:42044:1,2000-12-04T03:00:00Z,26.1914,-97.0507,2.0,354.8293263,33.0645626,-99999.0,'11111222,11111222,99999999' 
TABS,ioos:station:wmo:42044:1,2000-12-04T03:30:00Z,26.1914,-97.0507,2.0,11.17382216,34.62636279,-99999.0,'11111222,11111222,99999999' 
TABS,ioos:station:wmo:42044:1,2000-12-04T04:00:00Z,26.1914,-97.0507,2.0,0.24257638,35.46031726,-99999.0,'11111222,11111222,99999999' 
TABS,ioos:station:wmo:42044:1,2000-12-04T04:30:00Z,26.1914,-97.0507,2.0,359.2445966,34.12296734,-99999.0,'11111222,11144222,99999999' 
TABS,ioos:station:wmo:42044:1,2000-12-04T05:00:00Z,26.1914,-97.0507,2.0,3.806334875,33.59409621,-99999.0,'11111222,11111222,99999999' 
TABS,ioos:station:wmo:42044:1,2000-12-04T05:30:00Z,26.1914,-97.0507,2.0,351.2475315,33.31801014,-99999.0,'11111222,11111222,99999999' 
TABS,ioos:station:wmo:42044:1,2000-12-04T06:00:00Z,26.1914,-97.0507,2.0,18.51669511,33.31462892,-99999.0,'11111222,11111222,99999999' 
TABS,ioos:station:wmo:42044:1,2000-12-04T06:30:00Z,26.1914,-97.0507,2.0,9.971090301,21.48450605,-99999.0,'11111222,11111222,99999999' 
TABS,ioos:station:wmo:42044:1,2000-12-04T07:00:00Z,26.1914,-97.0507,2.0,352.2890232,34.43136361,-99999.0,'11111222,11111222,99999999' 
TABS,ioos:station:wmo:42044:1,2000-12-04T07:30:00Z,26.1914,-97.0507,2.0,340.633935,31.90527229,-99999.0,'11111222,11111222,99999999' 
TABS,ioos:station:wmo:42044:1,2000-12-04T08:00:00Z,26.1914,-97.0507,2.0,350.5786523,30.05543046,-99999.0,'11111222,11111222,99999999' 
TABS,ioos:station:wmo:42044:1,2000-12-04T08:30:00Z,26.1914,-97.0507,2.0,334.1602378,31.45505047,-99999.0,'11111222,11111222,99999999' 
TABS,ioos:station:wmo:42044:1,2000-12-04T09:00:00Z,26.1914,-97.0507,2.0,351.5782603,33.59225059,-99999.0,'11111222,11111222,99999999' 
TABS,ioos:station:wmo:42044:1,2000-12-04T09:30:00Z,26.1914,-97.0507,2.0,0.526971395,32.63137907,-99999.0,'11111222,11111222,99999999' 
TABS,ioos:station:wmo:42044:1,2000-12-04T10:00:00Z,26.1914,-97.0507,2.0,359.2558308,23.09194881,-99999.0,'11111222,11144222,99999999' 
TABS,ioos:station:wmo:42044:1,2000-12-04T10:30:00Z,26.1914,-97.0507,2.0,359.4561086,31.59142447,-99999.0,'11111222,11144222,99999999' 
TABS,ioos:station:wmo:42044:1,2000-12-04T11:00:00Z,26.1914,-97.0507,2.0,315.8362823,29.07932599,-99999.0,'11111222,11111222,99999999' 
TABS,ioos:station:wmo:42044:1,2000-12-04T11:30:00Z,26.1914,-97.0507,2.0,232.1591615,42.26806478,-99999.0,'11111222,11111222,99999999' 
TABS,ioos:station:wmo:42044:1,2000-12-04T12:00:00Z,26.1914,-97.0507,2.0,236.8519071,38.97220805,-99999.0,'11111222,11111222,99999999' 
TABS,ioos:station:wmo:42044:1,2000-12-04T12:30:00Z,26.1914,-97.0507,2.0,333.0005579,34.78080218,-99999.0,'11111222,11111222,99999999' 
TABS,ioos:station:wmo:42044:1,2000-12-04T13:00:00Z,26.1914,-97.0507,2.0,344.8040447,35.82257668,-99999.0,'11111222,11111222,99999999' 
TABS,ioos:station:wmo:42044:1,2000-12-04T13:30:00Z,26.1914,-97.0507,2.0,337.0699731,33.64895541,-99999.0,'11111222,11111222,99999999' 
TABS,ioos:station:wmo:42044:1,2000-12-04T14:00:00Z,26.1914,-97.0507,2.0,348.83625,33.10647218,-99999.0,'11111222,11111222,99999999' 
TABS,ioos:station:wmo:42044:1,2000-12-04T14:30:00Z,26.1914,-97.0507,2.0,326.244885,34.05029368,-99999.0,'11111222,11111222,99999999' 
TABS,ioos:station:wmo:42044:1,2000-12-04T15:00:00Z,26.1914,-97.0507,2.0,330.4258409,31.6885342,-99999.0,'11111222,11111222,99999999' 
TABS,ioos:station:wmo:42044:1,2000-12-04T15:30:00Z,26.1914,-97.0507,2.0,331.9739564,31.39118666,-99999.0,'11111222,11111222,99999999' 
TABS,ioos:station:wmo:42044:1,2000-12-04T16:00:00Z,26.1914,-97.0507,2.0,341.9052222,23.98629817,-99999.0,'11111222,11111222,99999999' 
TABS,ioos:station:wmo:42044:1,2000-12-04T16:30:00Z,26.1914,-97.0507,2.0,235.0843237,34.89029951,-99999.0,'11111222,11111222,99999999' 
TABS,ioos:station:wmo:42044:1,2000-12-04T17:00:00Z,26.1914,-97.0507,2.0,246.7397067,39.2501414,-99999.0,'11111222,11111222,99999999' 
TABS,ioos:station:wmo:42044:1,2000-12-04T17:30:00Z,26.1914,-97.0507,2.0,227.7240556,39.86931652,-99999.0,'11111222,11111222,99999999' 
TABS,ioos:station:wmo:42044:1,2000-12-04T18:00:00Z,26.1914,-97.0507,2.0,223.9827087,41.83195549,-99999.0,'11111222,11111222,99999999' 
TABS,ioos:station:wmo:42044:1,2000-12-04T18:30:00Z,26.1914,-97.0507,2.0,225.4346325,40.98508997,-99999.0,'11111222,11111222,99999999' 
TABS,ioos:station:wmo:42044:1,2000-12-04T19:00:00Z,26.1914,-97.0507,2.0,227.5904017,46.6177005,-99999.0,'11111222,11111222,99999999' 
TABS,ioos:station:wmo:42044:1,2000-12-04T19:30:00Z,26.1914,-97.0507,2.0,232.3054268,41.42628755,-99999.0,'11111222,11111222,99999999' 
TABS,ioos:station:wmo:42044:1,2000-12-04T20:00:00Z,26.1914,-97.0507,2.0,283.6817683,40.33444806,-99999.0,'11111222,11111222,99999999' 